Regional Weather Roundup
Issued by NWS

Home | Current Version | Previous Version | Graphics & Text | Print | Product List | Glossary On
Versions: 1 2 3 4 5 6 7 8 9 10 11 12 13 14 15 16 17 18 19 20 21 22 23 24 25 26 27 28 29 30 31 32 33 34 35 36 37 38 39 40 41 42 43 44 45 46 47 48 49 50
000
ASUS43 KIND 290259
RWRIN

WEATHER ROUNDUP FOR INDIANA
NATIONAL WEATHER SERVICE INDIANAPOLIS IN
1100 PM EDT THU MAY 28 2015

NOTE: "FAIR" INDICATES FEW OR NO CLOUDS BELOW 12,000 FEET WITH NO
SIGNIFICANT WEATHER AND/OR OBSTRUCTIONS TO VISIBILITY.

* - STATION DOES NOT REPORT WEATHER SUCH AS PRECIPITATION OR FOG.

+ - STATION NOT QUALITY CONTROLLED BY THE NATIONAL WEATHER SERVICE.
    USE DATA WITH CAUTION...ESPECIALLY DEWPOINT AND RELATIVE
    HUMIDITY OBSERVATIONS.

INZ001>003-010>013-019-020-290400-
NORTHWEST INDIANA

CITY           SKY/WX    TMP DP  RH WIND       PRES   REMARKS
GARY /AIRPORT/ PTCLDY    61  59  94 CALM      30.10R
RENSSELAER +   PTCLDY    70  54  56 CALM      30.10S

$$

LMZ046-743>745-290400-
SOUTHERN LAKE MICHIGAN

STATION/POSITION TIME  TEMP    WIND        PRES    WAVE
                       AIR SEA DIR/SP/G            HT
                 (UTC) (F)     (DEG/KT/KT) (MB)    (FT)
BURNS HARBOR     0200   68     100/  7/ 12 1019.6R
MICHIGAN CITY    0200   74      70/  7/  7   N/A
5NW MICH CITY    0200   60 55  110/  4/  4   N/A     1

$$

INZ004-005-014>016-021>024-290400-
NORTH CENTRAL INDIANA

CITY           SKY/WX    TMP DP  RH WIND       PRES   REMARKS
GOSHEN         CLEAR     65  57  75 SE7       30.14S
SOUTH BEND     CLEAR     73  57  57 E10       30.13S

$$

INZ006>009-017-018-025>027-290400-
NORTHEAST INDIANA

CITY           SKY/WX    TMP DP  RH WIND       PRES   REMARKS
ANGOLA *+      CLEAR     70  55  60 E8        30.18R
FORT WAYNE     PTCLDY    70  61  73 E9        30.16R

$$

INZ028-029-035-036-043>045-051>053-290400-
WEST CENTRAL INDIANA

CITY           SKY/WX    TMP DP  RH WIND       PRES   REMARKS
CRAWFORDSVL +  PTCLDY    70  57  63 SE6       30.13S
GREENCASTLE +  PTCLDY    70  59  68 CALM      30.14S
LAFAYETTE      MOCLDY    70  60  70 SE5       30.10R
TERRE HAUTE    PTCLDY    74  65  73 SE7       30.12R

$$

INZ030>032-037>040-046>048-054>057-064-065-290400-
CENTRAL INDIANA

CITY           SKY/WX    TMP DP  RH WIND       PRES   REMARKS
GREENWOOD *+   CLEAR     72  59  64 S5        30.16R
INDIANAPOLIS   PTCLDY    74  61  63 S7        30.13R
-EAGLE CREEK   CLEAR     74  62  66 S3        30.14R
KOKOMO *+      MOCLDY    70  57  64 SE8       30.13R
MT COMFORT *+  CLEAR     73  55  53 S3        30.16R
SHELBYVILLE    CLEAR     74  63  68 SE7       30.15R

$$

INZ033-034-041-042-049-050-058-059-290400-
EAST CENTRAL INDIANA

CITY           SKY/WX    TMP DP  RH WIND       PRES   REMARKS
MUNCIE         CLEAR     74  60  61 S6        30.15R

$$

INZ060-061-067>069-081>083-085>088-290400-
SOUTHWEST INDIANA

CITY           SKY/WX    TMP DP  RH WIND       PRES   REMARKS
EVANSVILLE     CLEAR     74  65  73 CALM      30.13R
HUNTINGBURG *+ MOCLDY    72  64  78 SE9       30.14R

$$

INZ062-063-066-070>080-084-089>092-290400-
SOUTH CENTRAL AND SOUTHEAST INDIANA

CITY           SKY/WX    TMP DP  RH WIND       PRES   REMARKS
BLOOMINGTON    CLEAR     70  65  84 SE3       30.15R
MADISON *+     PTCLDY    72  63  73 SE5       30.19R
SEYMOUR +      CLEAR     72  64  78 SE3       30.15R

$$




USA.gov is the U.S. government's official web portal to all federal, state and local government web resources and services.